Columbus, OH

10:42 AM EDT on May 25, 2017 (GMT -0400)
Port Columbus International

Weather History for KCMH - December, 2013

Change the Weather History Date:

Friday, December 6, 2013

  Actual Average Record
Temperature  
Mean Temperature 31 °F 36 °F  
Max Temperature 35 °F 43 °F 73 °F (1998)
Min Temperature 27 °F 29 °F 3 °F (1977)
Degree Days  
Heating Degree Days 34 29  
Month to date heating degree days 136 167  
Since 1 July heating degree days 1198 1181  
Cooling Degree Days 0 0  
Month to date cooling degree days 0 0  
Year to date cooling degree days 1179 1024  
Moisture  
Dew Point 27 °F    
Average Humidity 84    
Maximum Humidity 89    
Minimum Humidity 78    
Precipitation  
Precipitation 0.52 in 0.10 in 1.10 in (1971)
Month to date precipitation 0.82 0.58  
Year to date precipitation 38.07 36.92  
Snow  
Snow 5.10 in 0.10 in 5.10 in (2013)
Month to date snowfall 5.1 0.6  
Since 1 July snowfall 9.8 1.7  
Snow Depth 0.00 in    
Sea Level Pressure  
Sea Level Pressure 30.21 in    
Wind  
Wind Speed 10 mph (North)    
Max Wind Speed 17 mph    
Max Gust Speed 21 mph    
Visibility 4 miles    
Events Fog , Rain , Snow    
T = Trace of Precipitation, MM = Missing Value Source: NWS Daily Summary

Daily Weather History Graph

Daily Weather History Graph

Search for Another Location

Airport or City:

Trip Planner

Search our weather history database for the weather conditions in past years. The results will help you decide how hot, cold, wet, or windy it might be!

Date:

Astronomy

Dec. 06, 2013 Rise Set
Actual Time 7:39 AM EST 5:06 PM EST
Civil Twilight 7:08 AM EST 5:36 PM EST
Nautical Twilight 6:35 AM EST 6:10 PM EST
Astronomical Twilight 6:02 AM EST 6:43 PM EST
Moon 10:44 AM EST (12/6) 9:36 PM EST (12/6)
Length of Visible Light 10h 27m
Length of Day
9h 26m
Waxing Crescent, 19% of the Moon is Illuminated
Dec 6
Waxing Crescent
Dec 9
First Quarter
Dec 17
Full
Dec 25
Last Quarter
Jan 1
New

Hourly Weather History & Observations

Time (EST) Temp. Windchill Dew Point Humidity Pressure Visibility Wind Dir Wind Speed Gust Speed Precip Events Conditions
12:51 AM 35.1 °F 29.3 °F 30.0 °F 82% 30.14 in 10.0 mi NNW 6.9 mph - 0.01 in   Overcast
12:58 AM 35.6 °F 29.2 °F 30.2 °F 81% 30.11 in 9.0 mi North 8.1 mph - N/A   Overcast
1:51 AM 34.0 °F 26.6 °F 28.9 °F 82% 30.14 in 7.0 mi NW 9.2 mph - 0.00 in Rain Light Rain
2:36 AM 33.8 °F 27.0 °F 28.4 °F 81% 30.13 in 5.0 mi NNW 8.1 mph - 0.01 in Rain , Snow Light Snow
2:51 AM 34.0 °F 28.8 °F 28.9 °F 82% 30.16 in 4.0 mi NNW 5.8 mph - 0.01 in Rain , Snow Light Snow
3:28 AM 33.8 °F 27.7 °F 28.4 °F 81% 30.12 in 6.0 mi North 6.9 mph - 0.01 in Rain , Snow Light Snow
3:47 AM 33.8 °F 27.0 °F 30.2 °F 87% 30.14 in 6.0 mi NNW 8.1 mph - 0.01 in Rain , Snow Light Snow
3:51 AM 33.1 °F 24.9 °F 30.0 °F 89% 30.16 in 5.0 mi NW 10.4 mph - 0.02 in Rain , Snow Light Snow
3:58 AM 33.8 °F 25.8 °F 28.4 °F 81% 30.15 in 5.0 mi NNW 10.4 mph - 0.00 in Rain , Snow Light Snow
4:09 AM 33.8 °F 25.8 °F 28.4 °F 81% 30.17 in 5.0 mi NW 10.4 mph - 0.01 in Rain , Snow Light Snow
4:37 AM 33.8 °F 27.0 °F 28.4 °F 81% 30.16 in 4.0 mi NNW 8.1 mph - 0.05 in Rain , Snow Light Snow
4:51 AM 32.0 °F 23.6 °F 28.0 °F 85% 30.19 in 4.0 mi NNW 10.4 mph - 0.06 in Snow Light Ice Pellets
5:00 AM 32.0 °F 24.2 °F 28.4 °F 87% 30.18 in 3.0 mi NNW 9.2 mph - 0.01 in Rain , Snow Light Freezing Rain
5:42 AM 32.0 °F 25.6 °F 28.4 °F 87% 30.18 in 4.0 mi North 6.9 mph - 0.03 in Rain , Snow Light Freezing Rain
5:44 AM 32.0 °F 25.6 °F 28.4 °F 87% 30.17 in 4.0 mi North 6.9 mph - 0.03 in Rain , Snow Light Freezing Rain
5:51 AM 32.0 °F 24.8 °F 28.0 °F 85% 30.19 in 4.0 mi North 8.1 mph - 0.03 in Rain , Snow Light Freezing Rain
5:58 AM 32.0 °F 23.6 °F 28.4 °F 87% 30.17 in 5.0 mi North 10.4 mph - 0.00 in Rain , Snow Light Freezing Rain
6:24 AM 32.0 °F 23.0 °F 26.6 °F 80% 30.16 in 9.0 mi North 11.5 mph - 0.00 in Snow Light Snow
6:51 AM 30.9 °F 22.2 °F 27.0 °F 85% 30.20 in 7.0 mi North 10.4 mph - 0.00 in Snow Light Snow
7:06 AM 30.2 °F 20.8 °F 26.6 °F 86% 30.18 in 7.0 mi North 11.5 mph - 0.00 in Snow Light Snow
7:51 AM 30.9 °F 22.8 °F 27.0 °F 85% 30.19 in 8.0 mi NNE 9.2 mph - 0.00 in Snow Light Snow
8:40 AM 30.2 °F 21.3 °F 26.6 °F 86% 30.20 in 2.0 mi NNW 10.4 mph - 0.00 in Snow Light Snow
8:44 AM 30.2 °F 21.3 °F 26.6 °F 86% 30.21 in 1.8 mi North 10.4 mph - 0.01 in Snow Light Snow
8:51 AM 30.9 °F 22.2 °F 26.1 °F 82% 30.24 in 1.8 mi North 10.4 mph - 0.01 in Snow Light Snow
8:59 AM 30.2 °F 21.9 °F 26.6 °F 86% 30.22 in 3.0 mi North 9.2 mph - 0.00 in Snow Light Snow
9:51 AM 30.9 °F 25.2 °F 26.1 °F 82% 30.23 in 6.0 mi NNE 5.8 mph - 0.00 in   Haze
10:15 AM 32.0 °F 24.2 °F 26.6 °F 80% 30.20 in 6.0 mi North 9.2 mph - 0.00 in Rain Light Freezing Rain
10:42 AM 32.0 °F 24.2 °F 26.6 °F 80% 30.22 in 5.0 mi North 9.2 mph - 0.00 in   Ice Pellets
10:51 AM 32.0 °F 24.2 °F 26.1 °F 79% 30.24 in 5.0 mi North 9.2 mph - 0.00 in   Ice Pellets
11:05 AM 32.0 °F 24.8 °F 26.6 °F 80% 30.21 in 2.0 mi NNW 8.1 mph - 0.00 in Snow Light Snow
11:23 AM 32.0 °F 22.5 °F 26.6 °F 80% 30.20 in 5.0 mi North 12.7 mph - 0.00 in Snow Light Snow
11:51 AM 32.0 °F 22.5 °F 27.0 °F 82% 30.22 in 5.0 mi North 12.7 mph - 0.00 in Snow Light Snow
12:14 PM 30.2 °F 21.3 °F 26.6 °F 86% 30.21 in 2.5 mi North 10.4 mph - 0.00 in Snow Light Snow
12:51 PM 30.9 °F 20.2 °F 27.0 °F 85% 30.22 in 2.0 mi North 15.0 mph - 0.01 in Snow Light Snow
1:05 PM 30.2 °F 21.3 °F 26.6 °F 86% 30.19 in 1.5 mi North 10.4 mph - 0.01 in Snow Light Snow
1:12 PM 30.2 °F 19.3 °F 26.6 °F 86% 30.19 in 1.0 mi North 15.0 mph 20.7 mph 0.01 in Snow Light Snow
1:40 PM 30.2 °F 20.8 °F 26.6 °F 86% 30.18 in 0.5 mi North 11.5 mph - 0.03 in Snow Snow
1:51 PM 30.9 °F 21.7 °F 27.0 °F 85% 30.20 in 0.5 mi North 11.5 mph - 0.03 in Fog , Snow Snow
1:58 PM 30.2 °F 20.2 °F 26.6 °F 86% 30.18 in 0.8 mi North 12.7 mph - 0.01 in Snow Light Snow
2:51 PM 30.0 °F 21.1 °F 27.0 °F 88% 30.19 in 1.0 mi North 10.4 mph - 0.04 in Snow Light Snow
3:22 PM 30.2 °F 19.3 °F 24.8 °F 80% 30.17 in 0.8 mi North 15.0 mph - 0.01 in Snow Light Snow
3:51 PM 30.0 °F 21.1 °F 26.1 °F 85% 30.20 in 0.2 mi North 10.4 mph - 0.03 in Fog , Snow Heavy Snow
4:06 PM 30.2 °F 23.4 °F 26.6 °F 86% 30.20 in 0.5 mi North 6.9 mph - 0.01 in Snow Light Snow
4:51 PM 30.0 °F 20.0 °F 26.1 °F 85% 30.23 in 0.5 mi North 12.7 mph - 0.05 in Fog , Snow Snow
5:13 PM 30.2 °F 21.3 °F 26.6 °F 86% 30.19 in 1.2 mi North 10.4 mph - 0.02 in Snow Light Snow
5:33 PM 30.2 °F 19.8 °F 26.6 °F 86% 30.22 in 2.5 mi North 13.8 mph 18.4 mph 0.03 in Snow Light Snow
5:47 PM 30.2 °F 21.9 °F 26.6 °F 86% 30.21 in 3.0 mi North 9.2 mph - 0.03 in Snow Light Snow
5:51 PM 30.0 °F 21.1 °F 26.1 °F 85% 30.24 in 3.0 mi North 10.4 mph - 0.03 in Snow Light Snow
6:06 PM 30.2 °F 22.6 °F 26.6 °F 86% 30.22 in 3.0 mi North 8.1 mph - 0.01 in Snow Light Snow
6:21 PM 30.2 °F 20.8 °F 24.8 °F 80% 30.22 in 3.0 mi North 11.5 mph - 0.01 in Snow Light Snow
6:48 PM 30.2 °F 21.9 °F 24.8 °F 80% 30.26 in 3.0 mi North 9.2 mph - 0.02 in Snow Light Snow
6:51 PM 30.0 °F 21.1 °F 25.0 °F 82% 30.29 in 2.0 mi North 10.4 mph - 0.03 in Snow Light Snow
7:17 PM 28.4 °F 20.4 °F 24.8 °F 86% 30.28 in 1.2 mi NNW 8.1 mph - 0.01 in Snow Light Snow
7:39 PM 28.4 °F 19.7 °F 24.8 °F 86% 30.28 in 0.8 mi North 9.2 mph - 0.03 in Snow Light Snow
7:51 PM 28.9 °F 19.8 °F 25.0 °F 85% 30.29 in 0.8 mi North 10.4 mph - 0.04 in Snow Light Snow
8:02 PM 28.4 °F 19.7 °F 24.8 °F 86% 30.28 in 1.0 mi North 9.2 mph - 0.01 in Snow Light Snow
8:51 PM 28.0 °F 18.1 °F 23.0 °F 81% 30.29 in 1.8 mi North 11.5 mph - 0.03 in Snow Light Snow
9:10 PM 28.4 °F 20.4 °F 24.8 °F 86% 30.31 in 4.0 mi NNW 8.1 mph - 0.01 in Snow Light Snow
9:40 PM 28.4 °F 20.4 °F 24.8 °F 86% 30.31 in 6.0 mi North 8.1 mph - 0.01 in Snow Light Snow
9:51 PM 28.0 °F 20.0 °F 23.0 °F 81% 30.34 in 6.0 mi North 8.1 mph - 0.03 in Snow Light Snow
10:51 PM 28.0 °F 21.7 °F 23.0 °F 81% 30.36 in 5.0 mi NNW 5.8 mph - 0.00 in Snow Light Snow
11:51 PM 27.0 °F 16.7 °F 23.0 °F 85% 30.38 in 6.0 mi NNW 11.5 mph - 0.00 in Snow Light Snow